RYR8286 EGSS-LEAL

Flight info

Callsign RYR8286
Flight time N/A
Altitude 35000
Route NUGBO1S NUGBO M183 SILVA Q41 COWLY UT71 VAPID UN859 SOPIL DCT BALAN DCT LMG DCT PIMQO DCT AGN DCT ANETO DCT POSSY DCT XIMPE DCT RIMES N860 VLC VLC3L
Aircraft B738/M-SDE2E3FGHIRWXY/LB1

Departure

Time N/A
Airport London Stansted Airport (EGSS)

Arrival

Time 2026-05-04 17:17
Airport Alicante-Elche Miguel Hernández Airport (LEAL)
Time Latitude Longitude Altitude Speed Heading
2026-05-04 15:28 49.50103 0.23663 34940 ft 430 kts 167°
2026-05-04 15:29 49.41460 0.27144 34948 ft 431 kts 167°
2026-05-04 15:30 49.21141 0.35468 34920 ft 433 kts 166°
2026-05-04 15:31 49.12446 0.39134 34915 ft 434 kts 166°
2026-05-04 15:32 48.97895 0.45208 34904 ft 432 kts 166°
2026-05-04 15:34 48.83441 0.51205 34916 ft 431 kts 166°
2026-05-04 15:34 48.74757 0.54732 34917 ft 430 kts 167°
2026-05-04 15:35 48.66050 0.58108 34919 ft 432 kts 167°
2026-05-04 15:36 48.57262 0.61540 34917 ft 438 kts 167°
2026-05-04 15:36 48.51375 0.63822 34934 ft 433 kts 167°
2026-05-04 15:37 48.45581 0.66166 34956 ft 429 kts 167°
2026-05-04 15:37 48.39851 0.68510 34955 ft 428 kts 167°
2026-05-04 15:38 48.34103 0.70845 34954 ft 428 kts 167°
2026-05-04 15:38 48.28351 0.73169 34953 ft 428 kts 167°
2026-05-04 15:39 48.22578 0.75484 34957 ft 429 kts 167°
2026-05-04 15:40 48.13882 0.78901 34946 ft 431 kts 167°
2026-05-04 15:40 48.08088 0.81173 34950 ft 433 kts 167°
2026-05-04 15:41 48.02215 0.83475 34944 ft 434 kts 167°
2026-05-04 15:41 47.96406 0.85747 34923 ft 434 kts 168°
2026-05-04 15:42 47.90556 0.88030 34937 ft 434 kts 168°
2026-05-04 15:42 47.84717 0.90304 34935 ft 433 kts 168°
2026-05-04 15:43 47.78882 0.92566 34931 ft 432 kts 168°
2026-05-04 15:43 47.73070 0.94813 34927 ft 430 kts 168°
2026-05-04 15:44 47.67278 0.97047 34926 ft 428 kts 168°
2026-05-04 15:44 47.61547 0.99254 34929 ft 427 kts 168°
2026-05-04 15:45 47.55799 1.01462 34933 ft 425 kts 168°
2026-05-04 15:45 47.50072 1.03658 34926 ft 424 kts 168°
2026-05-04 15:46 47.44354 1.05815 34927 ft 422 kts 171°
2026-05-04 15:46 47.38553 1.06413 34936 ft 417 kts 183°
2026-05-04 15:47 47.32739 1.06206 34925 ft 417 kts 183°
2026-05-04 15:47 47.26928 1.06043 34928 ft 418 kts 182°
2026-05-04 15:48 47.21146 1.05910 34927 ft 418 kts 182°
2026-05-04 15:48 47.12407 1.05717 34924 ft 419 kts 182°
2026-05-04 15:49 47.06571 1.05588 34924 ft 419 kts 182°
2026-05-04 15:49 47.00738 1.05445 34923 ft 419 kts 183°
2026-05-04 15:50 46.94901 1.05194 34920 ft 419 kts 184°
2026-05-04 15:50 46.89074 1.04921 34924 ft 418 kts 184°
2026-05-04 15:51 46.83273 1.04662 34921 ft 418 kts 183°
2026-05-04 15:51 46.77450 1.04410 34920 ft 418 kts 183°
2026-05-04 15:52 46.71637 1.04160 34922 ft 418 kts 183°
2026-05-04 15:52 46.65825 1.03910 34918 ft 418 kts 183°
2026-05-04 15:53 46.60053 1.03662 34919 ft 417 kts 183°
2026-05-04 15:53 46.54246 1.03413 34921 ft 416 kts 183°
2026-05-04 15:54 46.48456 1.03217 34914 ft 416 kts 182°
2026-05-04 15:54 46.42675 1.03173 34914 ft 415 kts 182°
2026-05-04 15:55 46.36910 1.03141 34912 ft 414 kts 182°
2026-05-04 15:55 46.31158 1.03093 34919 ft 413 kts 182°
2026-05-04 15:56 46.25412 1.03037 34920 ft 412 kts 182°
2026-05-04 15:56 46.19715 1.02979 34911 ft 412 kts 182°
2026-05-04 15:57 46.13987 1.02922 34916 ft 411 kts 182°
2026-05-04 15:57 46.08266 1.02865 34911 ft 411 kts 182°
2026-05-04 15:58 46.02547 1.02808 34912 ft 411 kts 182°
2026-05-04 15:58 45.96833 1.02751 34917 ft 411 kts 182°
2026-05-04 15:59 45.91122 1.02694 34910 ft 410 kts 182°
2026-05-04 15:59 45.85407 1.02638 34911 ft 410 kts 182°
2026-05-04 16:00 45.79701 1.02985 34906 ft 413 kts 172°
2026-05-04 16:00 45.74085 1.04482 34914 ft 413 kts 172°
2026-05-04 16:01 45.68423 1.05969 34922 ft 413 kts 172°
2026-05-04 16:01 45.62759 1.07428 34925 ft 413 kts 172°
2026-05-04 16:02 45.57085 1.08876 34914 ft 414 kts 172°
2026-05-04 16:03 45.48575 1.11041 34922 ft 414 kts 172°
2026-05-04 16:03 45.42899 1.12483 34917 ft 414 kts 172°
2026-05-04 16:04 45.37252 1.13914 34913 ft 414 kts 173°
2026-05-04 16:04 45.28731 1.16068 34897 ft 414 kts 173°
2026-05-04 16:05 45.23042 1.17503 34909 ft 415 kts 173°
2026-05-04 16:06 45.14494 1.18831 34921 ft 410 kts 185°
2026-05-04 16:07 45.03319 1.16095 34916 ft 409 kts 192°
2026-05-04 16:08 44.93028 1.13437 34924 ft 410 kts 191°
2026-05-04 16:09 44.79018 1.09869 34919 ft 411 kts 191°
2026-05-04 16:10 44.67763 1.07015 34921 ft 411 kts 191°
2026-05-04 16:11 44.56506 1.04172 34923 ft 410 kts 191°
2026-05-04 16:12 44.39680 0.99943 34918 ft 409 kts 191°
2026-05-04 16:13 44.28472 0.97139 34925 ft 409 kts 191°
2026-05-04 16:14 44.17302 0.94356 34923 ft 409 kts 191°
2026-05-04 16:16 44.03321 0.90887 34926 ft 409 kts 191°
2026-05-04 16:17 43.89290 0.87421 34932 ft 410 kts 192°
2026-05-04 16:18 43.78083 0.84446 34928 ft 411 kts 193°
2026-05-04 16:19 43.64038 0.80671 34943 ft 410 kts 192°
2026-05-04 16:20 43.50045 0.76948 34951 ft 411 kts 193°
2026-05-04 16:22 43.35942 0.73214 34963 ft 413 kts 193°
2026-05-04 16:23 43.18990 0.68748 34954 ft 415 kts 193°
2026-05-04 16:25 43.02019 0.64303 34953 ft 413 kts 193°
2026-05-04 16:26 42.82283 0.59163 34949 ft 413 kts 193°
2026-05-04 16:28 42.68185 0.55111 34942 ft 412 kts 202°
2026-05-04 16:29 42.50052 0.43496 34931 ft 408 kts 206°
2026-05-04 16:31 42.37207 0.35332 34912 ft 412 kts 207°
2026-05-04 16:32 42.21448 0.25360 34919 ft 418 kts 206°
2026-05-04 16:33 42.10972 0.18761 34909 ft 416 kts 207°
2026-05-04 16:34 42.02743 0.15093 34919 ft 421 kts 190°
2026-05-04 16:35 41.85249 0.12571 34919 ft 421 kts 191°
2026-05-04 16:36 41.76561 0.11272 34897 ft 421 kts 191°
2026-05-04 16:37 41.67834 0.09970 34914 ft 419 kts 191°
2026-05-04 16:38 41.56232 0.08245 34906 ft 419 kts 191°
2026-05-04 16:39 41.41800 0.06107 34920 ft 418 kts 191°
2026-05-04 16:40 41.30130 0.04371 34907 ft 421 kts 192°
2026-05-04 16:41 41.15604 0.02245 34945 ft 421 kts 192°
2026-05-04 16:43 41.01129 0.00142 34922 ft 413 kts 192°
2026-05-04 16:43 40.92541 -0.01110 34952 ft 421 kts 192°
2026-05-04 16:45 40.74894 -0.03656 34943 ft 426 kts 192°
2026-05-04 16:46 40.60152 -0.05775 34949 ft 425 kts 192°
2026-05-04 16:47 40.48820 -0.09109 34959 ft 416 kts 202°
2026-05-04 16:48 40.37753 -0.13524 34955 ft 415 kts 201°
2026-05-04 16:49 40.26727 -0.17856 34949 ft 414 kts 201°
2026-05-04 16:50 40.15725 -0.22200 34956 ft 413 kts 202°
2026-05-04 16:51 40.07464 -0.25462 34931 ft 414 kts 202°
2026-05-04 16:52 39.96445 -0.29777 34913 ft 415 kts 202°
2026-05-04 16:53 39.88133 -0.32971 34835 ft 416 kts 202°
2026-05-04 16:53 39.79779 -0.36226 32921 ft 415 kts 202°
2026-05-04 16:54 39.77941 -0.36940 32484 ft 415 kts 202°
2026-05-04 16:55 39.65953 -0.41595 29191 ft 418 kts 201°
2026-05-04 16:55 39.61278 -0.43404 27762 ft 418 kts 201°
2026-05-04 16:56 39.55735 -0.45545 26264 ft 414 kts 201°
2026-05-04 16:56 39.47581 -0.48681 24399 ft 402 kts 201°
2026-05-04 16:57 39.44890 -0.49664 23759 ft 401 kts 200°
2026-05-04 16:57 39.39543 -0.51555 22434 ft 394 kts 200°
2026-05-04 16:58 39.31756 -0.54301 20696 ft 379 kts 200°
2026-05-04 16:58 39.29219 -0.55201 20131 ft 378 kts 200°
2026-05-04 16:59 39.24173 -0.56995 18998 ft 376 kts 200°
2026-05-04 17:00 39.13927 -0.60633 16593 ft 378 kts 200°
2026-05-04 17:00 39.06445 -0.63279 14922 ft 366 kts 200°
2026-05-04 17:01 39.01581 -0.64997 13837 ft 361 kts 200°
2026-05-04 17:01 38.96761 -0.66691 12661 ft 356 kts 200°
2026-05-04 17:02 38.93139 -0.67966 11811 ft 352 kts 200°
2026-05-04 17:02 38.89980 -0.69077 11197 ft 346 kts 200°
2026-05-04 17:03 38.88242 -0.69686 11064 ft 338 kts 200°
2026-05-04 17:03 38.86010 -0.70468 10898 ft 330 kts 200°
2026-05-04 17:03 38.81683 -0.71985 10633 ft 316 kts 200°
2026-05-04 17:04 38.77584 -0.73418 10350 ft 294 kts 200°
2026-05-04 17:04 38.73775 -0.74749 10110 ft 274 kts 201°
2026-05-04 17:05 38.70366 -0.76629 9463 ft 269 kts 211°
2026-05-04 17:05 38.67020 -0.78782 8793 ft 268 kts 211°
2026-05-04 17:06 38.63749 -0.80910 8265 ft 263 kts 211°
2026-05-04 17:06 38.62102 -0.81976 8001 ft 261 kts 211°
2026-05-04 17:07 38.58902 -0.84044 7511 ft 258 kts 211°
2026-05-04 17:07 38.57824 -0.84742 7332 ft 257 kts 211°
2026-05-04 17:07 38.55718 -0.86102 7011 ft 255 kts 211°
2026-05-04 17:07 38.54139 -0.87121 6777 ft 253 kts 211°
2026-05-04 17:08 38.52571 -0.88133 6538 ft 252 kts 211°
2026-05-04 17:08 38.49502 -0.90112 6288 ft 239 kts 211°
2026-05-04 17:08 38.48047 -0.91038 6221 ft 227 kts 211°
2026-05-04 17:09 38.46670 -0.91905 6115 ft 215 kts 211°
2026-05-04 17:09 38.45375 -0.92713 6063 ft 209 kts 207°
2026-05-04 17:09 38.43937 -0.92975 6003 ft 215 kts 173°
2026-05-04 17:10 38.41051 -0.91572 5693 ft 229 kts 161°
2026-05-04 17:10 38.36789 -0.89265 4985 ft 211 kts 161°
2026-05-04 17:11 38.35456 -0.88527 4757 ft 206 kts 156°
2026-05-04 17:11 38.34342 -0.87394 4532 ft 204 kts 139°
2026-05-04 17:11 38.32392 -0.85005 4181 ft 191 kts 126°
2026-05-04 17:12 38.32038 -0.83411 4118 ft 192 kts 96°
2026-05-04 17:12 38.31633 -0.80131 3633 ft 184 kts 103°
2026-05-04 17:13 38.30986 -0.75579 2924 ft 168 kts 103°
2026-05-04 17:14 38.30359 -0.71120 2247 ft 167 kts 101°
2026-05-04 17:14 38.30154 -0.69669 2043 ft 165 kts 101°
2026-05-04 17:14 38.29771 -0.66936 1631 ft 153 kts 101°
2026-05-04 17:15 38.29589 -0.65638 1426 ft 150 kts 101°
2026-05-04 17:15 38.29221 -0.63005 1038 ft 151 kts 103°
2026-05-04 17:16 38.28856 -0.60396 667 ft 153 kts 104°
2026-05-04 17:16 38.28314 -0.56481 121 ft 142 kts 103°
2026-05-04 17:17 38.28160 -0.55432 91 ft 94 kts 98°
2026-05-04 17:17 38.28196 -0.54724 67 ft 2 kts 40°
2026-05-04 17:18 38.28217 -0.54720 66 ft 4 kts 350°
2026-05-04 17:18 38.28249 -0.54790 70 ft 6 kts 284°
2026-05-04 17:19 38.28279 -0.54995 76 ft 18 kts 280°
2026-05-04 17:19 38.28351 -0.55212 86 ft 10 kts 38°
2026-05-04 17:20 38.28444 -0.55215 88 ft 10 kts 281°
2026-05-04 17:20 38.28466 -0.55383 92 ft 9 kts 279°
2026-05-04 17:20 38.28498 -0.55414 91 ft 7 kts
2026-05-04 17:21 38.28548 -0.55403 89 ft 0 kts 10°
2026-05-04 17:21 38.28554 -0.55402 90 ft 0 kts 10°